User: anonymous
Location: Unspecified
(0.0000°N, 0.0000°E)
Time: 17:31:15
(UTC+02:00)
Language:

YAOGAN 3 - Orbit

View from above orbital plane
View from above orbital plane
View from above satellite
View from above satellite

Ground track
Ground track

The orbit data is extracted from the following two-line orbital elements,

1 32289U 07055A   14111.18048169  .00001289  00000-0  16992-3 0  1246
2 32289 097.9362 103.6129 0001923 101.8129 258.3298 14.81799038348081
Epoch (UTC): 21 April 2014 04:19:53
Eccentricity: 0.0001923
inclination: 97.9362°
perigee height: 622 km
apogee height: 625 km
right ascension of ascending node: 103.6129°
argument of perigee: 101.8129°
revolutions per day: 14.81799038
mean anomaly at epoch: 258.3298°
orbit number at epoch: 34808

The dashed part of the orbit path shows where the satellite is in the earth's shadow,  

DLR